This is the latest recevied weather packets stored in our database for station/object N6HGA-1. If no packets are shown the sender has not sent any weather packets the latest 10 day(s).
| Time | Temp. | Humidity | Pressure | Rain* | Wind** | Luminosity | Snow |
|---|---|---|---|---|---|---|---|
| 1777840743 | 20.56° C | 75% | - | 0 mm | - | - | - |
| 1777840442 | 21.11° C | 74% | - | 0 mm | - | - | - |
| 1777840142 | 21.11° C | 74% | - | 0 mm | - | - | - |
| 1777839842 | 21.11° C | 72% | - | 0 mm | - | - | - |
| 1777839538 | 21.67° C | 71% | - | 0 mm | - | - | - |
| 1777839237 | 21.67° C | 71% | - | 0 mm | - | - | - |
| 1777838937 | 21.67° C | 71% | - | 0 mm | - | - | - |
| 1777838637 | 21.67° C | 70% | - | 0 mm | - | - | - |
| 1777838337 | 21.11° C | 71% | - | 0 mm | - | - | - |
| 1777838036 | 21.11° C | 73% | - | 0 mm | - | - | - |
| 1777837734 | 21.11° C | 73% | - | 0 mm | - | - | - |
| 1777837429 | 21.11° C | 73% | - | 0 mm | - | - | - |
| 1777837124 | 21.11° C | 72% | - | 0 mm | - | - | - |
| 1777836823 | 21.11° C | 72% | - | 0 mm | - | - | - |
| 1777836520 | 21.11° C | 73% | - | 0 mm | - | - | - |
| 1777836218 | 21.11° C | 73% | - | 0 mm | - | - | - |
| 1777835915 | 21.11° C | 74% | - | 0 mm | - | - | - |
| 1777835615 | 21.11° C | 73% | - | 0 mm | - | - | - |
| 1777835314 | 21.11° C | 73% | - | 0 mm | - | - | - |
| 1777835012 | 21.11° C | 72% | - | 0 mm | - | - | - |
| 1777834710 | 21.11° C | 71% | - | 0 mm | - | - | - |
| 1777834410 | 21.11° C | 71% | - | 0 mm | - | - | - |
| 1777834109 | 21.11° C | 70% | - | 0 mm | - | - | - |
| 1777833207 | 20.56° C | 53% | - | 0 mm | - | - | - |
| 1777832907 | 20° C | 78% | - | 0 mm | - | - | - |
* Rain since midnight (hover to see other rain measurements)
** Current wind speed in m/s (hover to see current wind gust speed)